STARLINK-1654 (46326 NORAD) Tracking and Keplerian Element Data

This shows tracking and keplerian element data for the satellite.

Feedback or suggestion? Click here.




ElementValue
Catalog46326
NameSTARLINK-1654
Epoch Orbit178
Epoch Day268.91668981
Epoch Year2020
RAAN324.4926
Inclination53.0007
Eccentricity0.0001192
Argument of Perigee61.8205
Mean Anonmoly147.6851
Mean Motion15.62783978
Decay Rate-0.00029565
L11 46326U 20062B 20268.91668981 -.00029565 00000-0 -31783-3 0 9991
L22 46326 53.0007 324.4926 0001192 61.8205 147.6851 15.62783978 1787

Live tracking and technical data element details for STARLINK-1654 (NORAD 46326). STARLINK-1654 can be tracked NOW for your location showing map with azimuth and elevation plus other details from your city location.

Track the satellite on the map from your city or location and see movement details for azimuth, elevation, latitude, longitude, range, height, and movement on the map or in text.







IsCatalogInMostPopularTable: catalog: 46326, numindb: 1
Update: records affected: 1



GetName: 46326 STARLINK-1654

Hit Count: updated at: Sat, 26 Sep 2020 16:02:14 GMT